Showing default

SESAT 2 (EXPRESS AM-22), 28134

Orbit data source: Space-Track

SESAT 2 (EXPRESS AM-22), 28134 is a payload satellite owned by KosSvyaz (FR) in GEO that was launched on Sun, 28 Dec 2003 UTC via a PROTON-K/DM-2M launch vehicle from the Tyuratam Missile And Space Complex (TTMTR). Payload-class satellites include a variety of spacecraft equipped with specific instruments for various scientific and technological missions. These include communications satellites like Starlink; space stations such as the ISS; scientific satellites like the Hubble; Earth observation satellites from companies like Planet Labs, Umbra, and HawkEye 360; GPS; miniature CubeSats for education and research; and military/defense satellites.

Loading next visibility...
Identifier
28134, 2003-060A
Orbit
GEO
Country
Flag of UnknownUnknown / EUTE
Related business
Manufacturer
NPO PM
Mission
Non-operational Commercial Communications
Bus & Motor
EKSPRESS, AOCS
Mass
2,542 kg wet, ~2,200 kg dry
Launch date (UTC)
2003-12-28 (22 years ago)
Launch vehicle
PROTON-K/DM-2M
Launch site
Tyuratam Missile And Space Complex (TTMTR)
Object type
Payload
Rocket body
Debris
Shape & HBR
Cyl + 2 Pan, 13.5 m
Radar Cross Section
18.140 m², Large (>1 m²)

Expand to show TLE details & history
Last TLE update: 14 hours ago

TLE from 14 hours ago
0 SESAT 2 (EXPRESS AM-22)
1 28134U 03060A   25305.31367759 -.00000185  00000-0  00000-0 0  9998
2 28134   7.7109  66.6283 0013224 143.5129 241.3159  0.99360172 79774
Epoch: 2025-11-01T07:31Z
TLE epoch observation values (Epoch: 2025-11-01T07:31:41.743Z)
Latitude
3.21008°
Longitude
-62.6788°
Altitude
36,070.459 km
Speed
3.063 km/s
True Right ascension
06h 04m 21s
True Declination
3° 12' 25"
Sunlit
Object was in daylight at epoch
Visualization orbit readout
Latitude
Unknown
Longitude
Unknown
Altitude
Unknown
Speed
Unknown
Apparent Right ascension
Unknown
Apparent Declination
Unknown
Sunlit
N/A
Visualization observer readout
Local Sidereal Time
17:34:03
Azimuth
Unknown
Elevation
Unknown
Doppler factor
Unknown
Orbital elements
Apogee altitude
36,101.242 km
Perigee altitude
35,989.041 km
Semi-major axis
42,423.278 km
Eccentricity
0.00132
Inclination
7.7109°
RAAN
66.6283°
Arg. of periapsis
143.5129°
True anomaly
241.18307°
Mean anomaly
241.3159°
Eccentric anomaly
241.24947°
Mean motion
0.24839 °/min
Orbital period
1,449.32 mins
BSTAR
0
Loading maneuver chart data...
Computing Atmospheric mass density...
Loading historical data...
Loading historical data...
Loading historical data...
Loading historical data...
Loading historical data...
Loading historical data...
Loading historical data...

Documentation

Showing up to 5 results
|